Location: Dyersburg
(36.0438°N, 89.3789°W)
Time: 13:06:48
(UTC+00:00)

Vanguard 2 Rocket - Visible Passes

Search period start: 17 February 2020 00:00
Search period end: 27 February 2020 00:00
Orbit: 554 x 3326 km, 32.9° (Epoch: 16 February)

Date Brightness Start Highest point End Pass type
(mag) Time Alt. Az. Time Alt. Az. Time Alt. Az.
17 Feb 8.9 01:59:35 10° SW 02:15:17 44° SSE 02:16:39 43° SE visible
17 Feb 9.9 04:17:05 10° WSW 04:22:29 25° WSW 04:22:29 25° WSW visible
18 Feb 9.3 00:58:15 10° SSW 01:14:17 37° SSE 01:20:44 25° ESE visible
18 Feb 9.0 03:14:44 10° WSW 03:26:33 49° SW 03:26:33 49° SW visible
18 Feb 9.9 23:57:36 10° SSW 00:13:05 30° SSE 00:24:40 10° E visible
19 Feb 8.7 02:12:30 10° SW 02:29:24 56° SSE 02:30:37 55° SE visible
19 Feb 9.9 04:31:03 10° W 04:36:26 25° WSW 04:36:26 25° WSW visible
20 Feb 9.1 01:10:37 10° SW 01:28:19 49° SSE 01:34:38 32° ESE visible
20 Feb 9.0 03:28:28 10° WSW 03:40:28 52° SW 03:40:28 52° SW visible
21 Feb 9.7 00:09:20 10° SSW 00:26:58 41° SSE 00:38:38 13° E visible
21 Feb 8.6 02:25:54 10° WSW 02:43:30 67° SSE 02:44:27 65° SE visible
21 Feb 10.0 04:45:09 10° W 04:50:16 24° W 04:50:16 24° W visible
22 Feb 9.0 01:23:37 10° SW 01:42:19 60° SSE 01:48:26 38° E visible
22 Feb 9.1 03:42:27 10° W 03:54:15 51° WSW 03:54:15 51° WSW visible
23 Feb 9.6 00:21:51 10° SW 00:40:51 53° SSE 00:52:22 17° E visible
23 Feb 8.5 02:39:40 10° WSW 02:57:38 75° S 02:58:10 74° SSE visible
23 Feb 10.1 04:59:18 10° W 05:03:59 23° W 05:03:59 23° W visible
24 Feb 8.9 01:37:05 10° WSW 01:56:22 70° SSE 02:02:05 43° E visible
24 Feb 9.2 03:56:33 10° W 04:07:54 48° WSW 04:07:54 48° WSW visible
25 Feb 9.5 00:34:57 10° SW 00:54:46 63° SSE 01:05:58 20° E visible
25 Feb 8.6 02:53:40 10° W 03:11:46 78° S 03:11:46 78° S visible
25 Feb 10.2 05:13:28 10° W 05:17:35 21° W 05:17:35 21° W visible
26 Feb 8.8 01:50:53 10° WSW 02:10:28 77° S 02:15:37 49° E visible
26 Feb 9.4 04:10:42 10° W 04:21:26 44° W 04:21:26 44° W visible
